Alturas, CA

11:56 AM PST on December 05, 2019 (GMT -0800)
Alturas Municipal

Weather History for KAAT - October, 2019

Change the Weather History Date:

Saturday, October 5, 2019

  Actual Average Record
Temperature  
Mean Temperature 43 °F 50 °F  
Max Temperature 64 °F 71 °F 92 °F (1964)
Min Temperature 22 °F 30 °F 18 °F (1969)
Degree Days  
Heating Degree Days 22 15  
Month to date heating degree days 110 70  
Since 1 July heating degree days 416 447  
Cooling Degree Days 0 0  
Month to date cooling degree days 0 0  
Year to date cooling degree days 217 156  
Moisture  
Dew Point 26 °F    
Average Humidity 58    
Maximum Humidity 92    
Minimum Humidity 20    
Precipitation  
Precipitation 0.00 in 0.02 in 0.65 in (1957)
Month to date precipitation 0.03 0.09  
Year to date precipitation 12.26 9.75  
Sea Level Pressure  
Sea Level Pressure 30.30 in    
Wind  
Wind Speed 2 mph ()    
Max Wind Speed 12 mph    
Max Gust Speed 15 mph    
Visibility 10.0 miles    
Events      
T = Trace of Precipitation, MM = Missing Value Source: Averaged Metar Reports

Daily Weather History Graph

Daily Weather History Graph

Search for Another Location

Airport or City:

Astronomy

Oct. 05, 2019 Rise Set
Actual Time 7:03 AM PDT 6:37 PM PDT
Civil Twilight 6:35 AM PDT 7:05 PM PDT
Nautical Twilight 6:03 AM PDT 7:37 PM PDT
Astronomical Twilight 5:31 AM PDT 8:09 PM PDT
Moon 2:37 PM PDT No Moon Set
Length of Visible Light 12h 29m
Length of Day
11h 34m
Waxing Crescent, 51% of the Moon is Illuminated
Oct 5
Waxing Crescent
Oct 13
Full
Oct 21
Last Quarter
Oct 27
New
Nov 4
First Quarter

Hourly Weather History & Observations

Time (PDT) Temp. Windchill Dew Point Humidity Pressure Visibility Wind Dir Wind Speed Gust Speed Precip Events Conditions
12:55 AM 30.0 °F - 27.0 °F 88% 30.32 in 10.0 mi Calm Calm - N/A   Clear
1:55 AM 28.9 °F 25.2 °F 26.1 °F 89% 30.31 in 10.0 mi East 3.5 mph - N/A   Clear
2:55 AM 27.0 °F - 23.0 °F 85% 30.31 in 10.0 mi Calm Calm - N/A   Clear
3:55 AM 25.0 °F - 23.0 °F 92% 30.31 in 10.0 mi Calm Calm - N/A   Clear
4:55 AM 25.0 °F - 21.9 °F 88% 30.30 in 10.0 mi Calm Calm - N/A   Clear
5:55 AM 24.1 °F - 21.0 °F 88% 30.32 in 10.0 mi Calm Calm - N/A   Clear
6:55 AM 23.0 °F - 19.9 °F 88% 30.34 in 10.0 mi Calm Calm - N/A   Clear
7:55 AM 27.0 °F - 25.0 °F 92% 30.35 in 10.0 mi Calm Calm - N/A   Clear
8:55 AM 33.1 °F - 28.9 °F 85% 30.37 in 10.0 mi Calm Calm - N/A   Clear
9:55 AM 42.1 °F 40.2 °F 30.9 °F 65% 30.35 in 10.0 mi Variable 3.5 mph - N/A   Clear
10:55 AM 48.0 °F - 30.0 °F 50% 30.32 in 10.0 mi Calm Calm - N/A   Clear
11:55 AM 54.0 °F - 28.0 °F 37% 30.30 in 10.0 mi Variable 3.5 mph - N/A   Clear
12:55 PM 55.9 °F - 26.1 °F 32% 30.28 in 10.0 mi Variable 4.6 mph - N/A   Clear
1:55 PM 59.0 °F - 21.9 °F 24% 30.26 in 10.0 mi WSW 4.6 mph - N/A   Clear
2:55 PM 63.0 °F - 21.9 °F 21% 30.25 in 10.0 mi Calm Calm - N/A   Clear
3:55 PM 62.1 °F - 23.0 °F 22% 30.25 in 10.0 mi NW 4.6 mph - N/A   Clear
4:55 PM 63.0 °F - 21.0 °F 20% 30.26 in 10.0 mi NNE 6.9 mph - N/A   Clear
5:55 PM 61.0 °F - 25.0 °F 25% 30.26 in 10.0 mi North 5.8 mph - N/A   Clear
6:55 PM 53.1 °F - 25.0 °F 34% 30.29 in 10.0 mi NNE 4.6 mph - N/A   Clear
7:55 PM 52.0 °F - 32.0 °F 47% 30.31 in 10.0 mi NNE 9.2 mph - N/A   Clear
8:55 PM 48.9 °F - 28.9 °F 46% 30.32 in 10.0 mi NNE 3.5 mph - N/A   Clear
9:55 PM 46.9 °F - 30.0 °F 52% 30.31 in 10.0 mi North 3.5 mph - N/A   Clear
10:55 PM 44.1 °F - 30.9 °F 60% 30.32 in 10.0 mi Calm Calm - N/A   Clear
11:55 PM 44.1 °F 40.8 °F 30.9 °F 60% 30.30 in 10.0 mi North 5.8 mph - N/A   Clear